1521316800.86,58050,10.44,71800.3,-9.61,-10.41,-10.41,0,*56
1521316802.06,58051,10.44,71796.5,-9.59,-10.45,-10.45,0,*5C
1521316803.33,58052,10.44,71798.0,-9.61,-10.45,-10.41,0,*50
1521316804.53,58053,10.44,71802.5,-9.59,-10.45,-10.45,0,*5E
1521316805.76,58054,10.44,71800.3,-9.61,-10.45,-10.45,0,*52
1521316807.02,58055,10.44,71794.0,-9.59,-10.41,-10.41,0,*58
1521316808.28,58056,10.44,71794.5,-9.61,-10.45,-10.41,0,*54
1521316809.54,58057,10.44,71798.5,-9.61,-10.41,-10.45,0,*55
1521316810.8,58058,10.44,71794.3,-9.61,-10.41,-10.45,0,*5A
1521316812.06,58059,10.44,71790.8,-9.59,-10.41,-10.41,0,*54
1521316813.29,58060,10.44,71792.5,-9.59,-10.41,-10.45,0,*5A
1521316814.52,58061,10.44,71788.3,-9.61,-10.45,-10.45,0,*54
1521316815.73,58062,10.44,71794.0,-9.59,-10.45,-10.45,0,*5C
1521316816.96,58063,10.44,71792.0,-9.61,-10.45,-10.45,0,*56
1521316818.19,58064,10.44,71790.0,-9.59,-10.45,-10.41,0,*5E
1521316819.45,58065,10.44,71792.0,-9.61,-10.45,-10.41,0,*54
1521316820.71,58066,10.44,71790.5,-9.61,-10.45,-10.41,0,*57
1521316821.97,58067,10.44,71794.0,-9.61,-10.45,-10.41,0,*56
1521316823.17,58068,10.44,71792.0,-9.59,-10.45,-10.45,0,*56
1521316824.4,58069,10.44,71800.0,-9.61,-10.45,-10.45,0,*5C
1521316825.6,58070,10.44,71796.5,-9.59,-10.45,-10.45,0,*5F
1521316826.86,58071,10.44,71796.0,-9.61,-10.41,-10.45,0,*51
1521316828.1,58072,10.44,71792.5,-9.59,-10.45,-10.41,0,*59
1521316829.36,58073,10.44,71794.0,-9.61,-10.45,-10.41,0,*53
1521316830.62,58074,10.44,71796.3,-9.61,-10.45,-10.41,0,*54
1521316831.88,58075,10.44,71788.5,-9.61,-10.45,-10.41,0,*55
1521316833.08,58076,10.44,71794.5,-9.59,-10.45,-10.45,0,*59
1521316834.34,58077,10.44,71796.0,-9.61,-10.45,-10.41,0,*57
1521316835.6,58078,10.44,71800.8,-9.61,-10.45,-10.41,0,*58
1521316836.83,58079,10.44,71796.5,-9.61,-10.45,-10.45,0,*5D
1521316838.09,58080,10.44,71792.8,-9.61,-10.45,-10.41,0,*5F
1521316839.32,58081,10.44,71794.8,-9.61,-10.45,-10.45,0,*5A
1521316840.58,58082,10.44,71790.8,-9.61,-10.45,-10.41,0,*5D
1521316841.84,58083,10.44,71798.0,-9.61,-10.45,-10.41,0,*5C
1521316843.04,58084,10.44,71798.3,-9.59,-10.45,-10.45,0,*54
1521316844.3,58085,10.44,71802.3,-9.61,-10.45,-10.41,0,*5A
1521316845.56,58086,10.44,71796.3,-9.61,-10.45,-10.41,0,*59
1521316846.82,58087,10.44,71792.5,-9.61,-10.41,-10.45,0,*58
1521316848.03,58088,10.44,71790.0,-9.59,-10.45,-10.45,0,*58
1521316849.29,58089,10.44,71788.5,-9.61,-10.45,-10.41,0,*56
1521316850.52,58090,10.44,71794.8,-9.61,-10.45,-10.45,0,*5A
1521316851.75,58091,10.44,71794.5,-9.61,-10.45,-10.45,0,*5B
1521316852.98,58092,10.44,71796.8,-9.61,-10.45,-10.45,0,*58
1521316854.21,58093,10.44,71790.0,-9.59,-10.45,-10.41,0,*56
1521316855.44,58094,10.44,71790.5,-9.59,-10.45,-10.41,0,*51
1521316856.65,58095,10.44,71792.3,-9.59,-10.45,-10.45,0,*54
1521316857.88,58096,10.44,71792.5,-9.61,-10.45,-10.45,0,*5C
1521316859.11,58097,10.44,71788.8,-9.61,-10.45,-10.45,0,*5D
1521316860.31,58098,10.44,71792.3,-9.59,-10.45,-10.45,0,*59
1521316861.54,58099,10.44,71794.3,-9.61,-10.45,-10.45,0,*53
1521316862.74,58100,10.44,71796.0,-9.59,-10.45,-10.45,0,*59
1521316863.98,58101,10.44,71794.5,-9.59,-10.41,-10.45,0,*5C
1521316865.21,58102,10.44,71792.5,-9.61,-10.45,-10.45,0,*50
1521316866.44,58103,10.44,71794.5,-9.61,-10.45,-10.45,0,*51
1521316867.64,58104,10.44,71794.0,-9.59,-10.45,-10.45,0,*5D
1521316868.87,58105,10.44,71792.8,-9.59,-10.45,-10.41,0,*58
1521316870.1,58106,10.44,71792.3,-9.59,-10.45,-10.41,0,*5B
1521316871.37,58107,10.44,71792.0,-9.59,-10.41,-10.41,0,*5E
1521316872.6,58108,10.44,71790.3,-9.59,-10.45,-10.41,0,*55
1521316873.86,58109,10.44,71790.8,-9.59,-10.41,-10.41,0,*50
1521316875.09,58110,10.44,71792.5,-9.61,-10.45,-10.45,0,*53
1521316876.29,58111,10.44,71788.8,-9.59,-10.45,-10.45,0,*59
1521316877.52,58112,10.44,71792.8,-9.61,-10.45,-10.45,0,*51
1521316878.73,58113,10.44,71794.8,-9.59,-10.45,-10.45,0,*5B
1521316879.96,58114,10.44,71798.0,-9.59,-10.45,-10.41,0,*58
1521316881.16,58115,10.44,71796.5,-9.59,-10.45,-10.45,0,*5D
1521316882.37,58116,10.44,71790.5,-9.59,-10.45,-10.45,0,*5E
1521316883.6,58117,10.44,71794.0,-9.59,-10.45,-10.41,0,*5B
1521316884.83,58118,10.44,71796.0,-9.59,-10.45,-10.41,0,*54
1521316886.06,58119,10.44,71794.3,-9.59,-10.41,-10.45,0,*55
1521316887.27,58120,10.44,71798.8,-9.59,-10.45,-10.45,0,*5B
1521316888.47,58121,10.44,71792.3,-9.59,-10.45,-10.45,0,*5A
1521316889.67,58122,10.44,71794.0,-9.59,-10.45,-10.45,0,*59
1521316890.93,58123,10.44,71788.3,-9.61,-10.45,-10.41,0,*57
1521316892.14,58124,10.44,71792.0,-9.59,-10.45,-10.45,0,*5F
1521316893.42,58125,10.44,71792.5,-9.61,-10.41,-10.41,0,*55
1521316894.69,58126,10.44,71794.0,-9.61,-10.45,-10.41,0,*52
1521316895.95,58127,10.44,71790.8,-9.59,-10.41,-10.41,0,*5C
1521316897.21,58128,10.44,71788.5,-9.61,-10.45,-10.41,0,*5C
1521316898.44,58129,10.44,71790.3,-9.59,-10.45,-10.41,0,*56
1521316899.67,58130,10.44,71794.3,-9.61,-10.45,-10.45,0,*51
1521316900.96,58131,10.44,71792.0,-9.61,-10.41,-10.41,0,*50
1521316902.19,58132,10.44,71794.3,-9.61,-10.45,-10.45,0,*53
1521316903.42,58133,10.44,71792.8,-9.59,-10.45,-10.41,0,*5D
1521316904.68,58134,10.44,71790.8,-9.61,-10.41,-10.45,0,*51
1521316905.91,58135,10.44,71794.0,-9.59,-10.45,-10.41,0,*5B
1521316907.15,58136,10.44,71792.3,-9.59,-10.45,-10.41,0,*58
1521316908.35,58137,10.44,71792.8,-9.59,-10.45,-10.45,0,*5D
1521316909.55,58138,10.44,71794.5,-9.59,-10.45,-10.45,0,*52
1521316910.78,58139,10.44,71794.3,-9.59,-10.45,-10.41,0,*57
1521316912.02,58140,10.44,71796.8,-9.59,-10.45,-10.41,0,*59
1521316913.22,58141,10.44,71792.8,-9.59,-10.45,-10.45,0,*5C
1521316914.45,58142,10.44,71788.8,-9.61,-10.45,-10.45,0,*54
1521316915.68,58143,10.44,71794.0,-9.61,-10.45,-10.45,0,*55
1521316916.94,58144,10.44,71792.5,-9.61,-10.45,-10.41,0,*56
1521316918.14,58145,10.44,71794.8,-9.59,-10.45,-10.45,0,*58
1521316919.37,58146,10.44,71794.8,-9.61,-10.45,-10.45,0,*50
1521316920.6,58147,10.44,71792.3,-9.61,-10.45,-10.45,0,*51
1521316921.84,58148,10.44,71794.0,-9.61,-10.45,-10.45,0,*5E
1521316923.07,58149,10.44,71790.0,-9.59,-10.41,-10.45,0,*50
1521316924.33,58150,10.44,71792.3,-9.61,-10.45,-10.41,0,*53
1521316925.53,58151,10.44,71790.8,-9.59,-10.45,-10.45,0,*5D
1521316926.76,58152,10.44,71790.8,-9.59,-10.45,-10.41,0,*5A
1521316928.03,58153,10.44,71788.8,-9.59,-10.41,-10.41,0,*5F
1521316929.26,58154,10.44,71790.8,-9.59,-10.45,-10.41,0,*5C
1521316930.55,58155,10.44,71788.8,-9.61,-10.41,-10.41,0,*52
1521316931.84,58156,10.44,71790.8,-9.61,-10.41,-10.41,0,*51
1521316933.12,58157,10.44,71794.3,-9.61,-10.41,-10.41,0,*50
1521316934.33,58158,10.38,71788.5,-9.59,-10.45,-10.45,0,*54
1521316935.56,58159,10.44,71790.8,-9.59,-10.41,-10.45,0,*51
1521316936.82,58160,10.44,71792.0,-9.61,-10.45,-10.41,0,*50
1521316938.05,58161,10.44,71792.3,-9.61,-10.45,-10.45,0,*55
1521316939.28,58162,10.44,71792.3,-9.61,-10.45,-10.45,0,*56
1521316940.51,58163,10.44,71790.8,-9.59,-10.41,-10.45,0,*58
1521316941.77,58164,10.44,71792.5,-9.61,-10.45,-10.41,0,*54
1521316943.03,58165,10.44,71794.3,-9.59,-10.41,-10.41,0,*5A
1521316944.32,58166,10.44,71796.0,-9.61,-10.41,-10.41,0,*52
1521316945.55,58167,10.44,71794.8,-9.59,-10.45,-10.41,0,*5C
1521316946.84,58168,10.44,71794.5,-9.61,-10.41,-10.41,0,*5C
1521316948.08,58169,10.44,71794.3,-9.59,-10.45,-10.41,0,*52
1521316949.28,58170,10.44,71798.3,-9.59,-10.45,-10.45,0,*5E
1521316950.54,58171,10.44,71798.3,-9.61,-10.45,-10.41,0,*50
1521316951.77,58172,10.44,71798.0,-9.61,-10.45,-10.45,0,*57
1521316953.0,58173,10.44,71792.5,-9.59,-10.45,-10.41,0,*59
1521316954.21,58174,10.44,71792.8,-9.59,-10.45,-10.31,0,*59
1521316955.47,58175,10.44,71798.5,-9.59,-10.41,-10.41,0,*5B
1521316956.67,58176,10.44,71796.8,-9.59,-10.45,-10.45,0,*58
1521316957.9,58177,10.44,71792.3,-9.59,-10.41,-10.45,0,*5D
1521316959.11,58178,10.44,71796.8,-9.59,-10.45,-10.45,0,*56
1521316960.34,58179,10.44,71798.3,-9.59,-10.45,-10.41,0,*53
1521316961.6,58180,10.44,71798.5,-9.61,-10.45,-10.41,0,*5E
1521316962.83,58181,10.44,71794.8,-9.59,-10.45,-10.41,0,*54
1521316964.06,58182,10.44,71796.8,-9.59,-10.41,-10.45,0,*57
1521316965.29,58183,10.44,71794.3,-9.61,-10.45,-10.45,0,*59
1521316966.53,58184,10.44,71796.5,-9.59,-10.41,-10.45,0,*51
1521316967.76,58185,10.44,71794.8,-9.59,-10.45,-10.41,0,*50
1521316968.99,58186,10.44,71798.3,-9.59,-10.45,-10.41,0,*53
1521316970.22,58187,10.44,71798.5,-9.59,-10.45,-10.41,0,*52
1521316971.49,58188,10.44,71798.8,-9.59,-10.41,-10.41,0,*59
1521316972.69,58189,10.44,71802.0,-9.59,-10.45,-10.45,0,*58
1521316973.92,58190,10.44,71796.5,-9.59,-10.45,-10.41,0,*54
1521316975.15,58191,10.44,71798.8,-9.59,-10.41,-10.45,0,*55
1521316976.41,58192,10.44,71800.5,-9.61,-10.45,-10.41,0,*5D
1521316977.62,58193,10.44,71798.8,-9.59,-10.45,-10.45,0,*53
1521316978.85,58194,10.44,71798.8,-9.59,-10.45,-10.41,0,*50
1521316980.11,58195,10.44,71794.5,-9.61,-10.41,-10.45,0,*5A
1521316981.34,58196,10.44,71796.0,-9.59,-10.45,-10.41,0,*52
1521316982.57,58197,10.44,71796.3,-9.59,-10.45,-10.41,0,*53
1521316983.81,58198,10.44,71798.3,-9.59,-10.45,-10.41,0,*5C
1521316985.01,58199,10.44,71798.3,-9.59,-10.45,-10.45,0,*59
1521316986.24,58200,10.44,71802.5,-9.59,-10.41,-10.45,0,*5E
1521316987.44,58201,10.44,71798.5,-9.59,-10.45,-10.45,0,*5B
1521316988.65,58202,10.44,71798.3,-9.59,-10.45,-10.45,0,*58
1521316989.88,58203,10.44,71798.5,-9.61,-10.45,-10.45,0,*52
1521316991.14,58204,10.44,71796.3,-9.61,-10.45,-10.41,0,*51
1521316992.34,58205,10.44,71796.3,-9.59,-10.45,-10.45,0,*5F
1521316993.63,58206,10.44,71802.3,-9.61,-10.41,-10.41,0,*57
1521316994.89,58207,10.44,71800.8,-9.59,-10.41,-10.41,0,*5D
1521316996.12,58208,10.44,71800.3,-9.59,-10.41,-10.45,0,*56
1521316997.38,58209,10.44,71796.8,-9.61,-10.45,-10.41,0,*5C
1521316998.64,58210,10.44,71798.5,-9.61,-10.45,-10.41,0,*54
1521316999.88,58211,10.44,71800.8,-9.59,-10.45,-10.41,0,*5E
1521317001.11,58212,10.44,71796.8,-9.59,-10.45,-10.41,0,*5D
1521317002.34,58213,10.44,71798.3,-9.61,-10.45,-10.45,0,*53
1521317003.57,58214,10.44,71796.3,-9.59,-10.45,-10.41,0,*5B
1521317004.77,58215,10.38,71796.5,-9.59,-10.45,-10.45,0,*5E
1521317006.01,58216,10.44,71798.8,-9.59,-10.41,-10.45,0,*59
1521317007.27,58217,10.44,71796.3,-9.59,-10.41,-10.41,0,*5C
1521317008.56,58218,10.44,71796.0,-9.61,-10.41,-10.41,0,*58
1521317009.82,58219,10.44,71798.8,-9.61,-10.45,-10.41,0,*5D
1521317011.05,58220,10.44,71794.8,-9.61,-10.45,-10.45,0,*53
1521317012.31,58221,10.44,71796.8,-9.61,-10.41,-10.45,0,*56
1521317013.54,58222,10.44,71794.0,-9.59,-10.41,-10.45,0,*5E
1521317014.74,58223,10.44,71792.8,-9.59,-10.45,-10.45,0,*5B
1521317015.97,58224,10.44,71796.3,-9.59,-10.45,-10.41,0,*58
1521317017.21,58225,10.44,71800.3,-9.59,-10.45,-10.41,0,*59
1521317018.47,58226,10.44,71798.3,-9.59,-10.41,-10.41,0,*5E
1521317019.73,58227,10.44,71796.3,-9.59,-10.41,-10.41,0,*5F
1521317021.02,58228,10.44,71798.8,-9.61,-10.41,-10.41,0,*5B
1521317022.25,58229,10.44,71796.0,-9.59,-10.45,-10.41,0,*55
1521317023.48,58230,10.44,71796.5,-9.59,-10.41,-10.45,0,*5D
1521317024.74,58231,10.44,71796.3,-9.61,-10.41,-10.31,0,*54
1521317026.0,58232,10.44,71796.0,-9.61,-10.41,-10.45,0,*54
1521317027.27,58233,10.44,71794.8,-9.59,-10.41,-10.41,0,*5A
1521317028.52,58234,10.44,71792.8,-9.61,-10.45,-10.41,0,*52
1521317029.76,58235,10.44,71794.0,-9.59,-10.41,-10.45,0,*58
1521317030.99,58236,10.44,71798.5,-9.59,-10.45,-10.41,0,*5B
1521317032.28,58237,10.44,71796.0,-9.61,-10.41,-10.41,0,*55
1521317033.54,58238,10.44,71794.8,-9.61,-10.41,-10.45,0,*5E
1521317034.77,58239,10.44,71796.0,-9.59,-10.45,-10.41,0,*54
1521317036.03,58240,10.44,71796.5,-9.59,-10.41,-10.41,0,*5E
1521317037.26,58241,10.44,71796.3,-9.59,-10.45,-10.41,0,*5B
1521317038.52,58242,10.44,71796.3,-9.61,-10.45,-10.41,0,*53
1521317039.79,58243,10.44,71792.5,-9.59,-10.41,-10.41,0,*5D
1521317041.02,58244,10.44,71792.5,-9.59,-10.41,-10.45,0,*5E
1521317042.25,58245,10.44,71794.0,-9.59,-10.45,-10.41,0,*5F
1521317043.48,58246,10.44,71798.0,-9.59,-10.41,-10.45,0,*5C
1521317044.74,58247,10.44,71800.3,-9.61,-10.45,-10.41,0,*56
1521317045.95,58248,10.44,71800.0,-9.59,-10.45,-10.45,0,*56
1521317047.2,58249,10.44,71796.3,-9.61,-10.45,-10.41,0,*58
1521317048.41,58250,10.44,71796.3,-9.59,-10.45,-10.45,0,*5F
1521317049.64,58251,10.44,71792.8,-9.59,-10.45,-10.41,0,*5A
1521317050.87,58252,10.44,71800.8,-9.59,-10.45,-10.41,0,*59
1521317052.13,58253,10.44,71796.0,-9.61,-10.45,-10.41,0,*53
1521317053.42,58254,10.44,71794.5,-9.61,-10.41,-10.41,0,*50
1521317054.66,58255,10.44,71798.0,-9.59,-10.45,-10.41,0,*5E
1521317055.92,58256,10.44,71796.8,-9.59,-10.41,-10.41,0,*59
1521317057.18,58257,10.44,71800.8,-9.59,-10.41,-10.41,0,*58
1521317058.44,58258,10.44,71800.0,-9.59,-10.41,-10.41,0,*57
1521317059.67,58259,10.44,71794.5,-9.59,-10.45,-10.41,0,*52
1521317060.9,58260,10.44,71802.3,-9.59,-10.45,-10.41,0,*58
1521317062.17,58261,10.44,71798.8,-9.59,-10.41,-10.41,0,*5D
1521317063.4,58262,10.44,71800.0,-9.59,-10.45,-10.41,0,*5A
1521317064.66,58263,10.44,71796.8,-9.59,-10.41,-10.41,0,*5F
1521317065.92,58264,10.44,71802.8,-9.59,-10.41,-10.41,0,*58
1521317067.18,58265,10.44,71798.0,-9.59,-10.41,-10.41,0,*59
1521317068.39,58266,10.44,71802.5,-9.59,-10.45,-10.45,0,*5A
1521317069.65,58267,10.44,71806.8,-9.61,-10.41,-10.45,0,*54
1521317070.85,58268,10.44,71802.0,-9.59,-10.45,-10.45,0,*54
1521317072.05,58269,10.44,71806.5,-9.59,-10.45,-10.45,0,*55
1521317073.31,58270,10.44,71804.5,-9.61,-10.41,-10.45,0,*52
1521317074.57,58271,10.44,71804.5,-9.59,-10.41,-10.41,0,*5C
1521317075.83,58272,10.44,71800.8,-9.61,-10.45,-10.41,0,*50
1521317077.07,58273,10.44,71800.5,-9.59,-10.45,-10.41,0,*5A
1521317078.27,58274,10.44,71804.3,-9.59,-10.45,-10.45,0,*59
1521317079.5,58275,10.44,71800.8,-9.59,-10.45,-10.41,0,*5C
1521317080.76,58276,10.44,71800.0,-9.59,-10.41,-10.41,0,*5B
1521317081.99,58277,10.44,71798.3,-9.59,-10.41,-10.45,0,*5E
1521317083.26,58278,10.44,71798.5,-9.59,-10.41,-10.41,0,*55
1521317084.46,58279,10.44,71800.3,-9.59,-10.45,-10.45,0,*54
1521317085.69,58280,10.44,71796.5,-9.59,-10.45,-10.41,0,*56
1521317086.98,58281,10.44,71798.3,-9.61,-10.41,-10.41,0,*58
1521317088.21,58282,10.44,71806.5,-9.59,-10.45,-10.41,0,*54
1521317089.45,58283,10.44,71802.0,-9.59,-10.41,-10.45,0,*55
1521317090.71,58284,10.44,71798.3,-9.59,-10.41,-10.41,0,*56
1521317091.97,58285,10.44,71796.8,-9.59,-10.41,-10.41,0,*57
1521317093.23,58286,10.44,71796.8,-9.59,-10.41,-10.41,0,*54
1521317094.49,58287,10.44,71804.3,-9.59,-10.41,-10.41,0,*55
1521317095.72,58288,10.44,71796.0,-9.59,-10.45,-10.41,0,*5E
1521317096.93,58289,10.44,71798.3,-9.59,-10.45,-10.45,0,*5B
1521317098.19,58290,10.44,71800.8,-9.61,-10.41,-10.45,0,*5C
1521317099.45,58291,10.44,71800.8,-9.59,-10.41,-10.41,0,*52
1521317100.68,58292,10.44,71798.3,-9.59,-10.45,-10.41,0,*55
1521317101.88,58293,10.44,71794.8,-9.59,-10.45,-10.45,0,*50
1521317103.09,58294,10.44,71802.3,-9.59,-10.45,-10.45,0,*57
1521317104.38,58295,10.44,71806.0,-9.61,-10.41,-10.41,0,*5D
1521317105.66,58296,10.44,71794.5,-9.61,-10.41,-10.41,0,*5E
1521317106.92,58297,10.44,71800.5,-9.61,-10.41,-10.45,0,*5B
1521317108.19,58298,10.44,71796.3,-9.59,-10.41,-10.41,0,*5B
1521317109.42,58299,10.44,71800.8,-9.59,-10.41,-10.45,0,*5E
1521317110.65,58300,10.44,71804.0,-9.59,-10.45,-10.41,0,*5F
1521317111.88,58301,10.44,71798.5,-9.59,-10.45,-10.41,0,*5E
1521317113.11,58302,10.44,71798.5,-9.59,-10.41,-10.45,0,*5D
1521317114.32,58303,10.44,71802.0,-9.59,-10.45,-10.45,0,*58
1521317115.58,58304,10.44,71798.5,-9.59,-10.41,-10.41,0,*5F
1521317116.84,58305,10.38,71792.8,-9.59,-10.41,-10.41,0,*5E
1521317118.1,58306,10.44,71800.3,-9.59,-10.41,-10.41,0,*5D
1521317119.33,58307,10.44,71798.5,-9.59,-10.41,-10.45,0,*58
1521317120.54,58308,10.44,71798.5,-9.59,-10.45,-10.31,0,*50
1521317121.77,58309,10.44,71802.0,-9.59,-10.41,-10.45,0,*56
1521317123.0,58310,10.44,71796.3,-9.59,-10.45,-10.41,0,*5E
1521317124.26,58311,10.44,71798.5,-9.59,-10.41,-10.41,0,*5B
1521317125.5,58312,10.44,71802.5,-9.59,-10.45,-10.41,0,*5C
1521317126.76,58313,10.44,71802.8,-9.59,-10.41,-10.41,0,*59
1521317127.99,58314,10.44,71802.5,-9.59,-10.41,-10.31,0,*59
1521317129.26,58315,10.44,71804.5,-9.59,-10.41,-10.41,0,*5F
1521317130.49,58316,10.44,71798.0,-9.59,-10.41,-10.31,0,*5B
1521317131.72,58317,10.44,71798.0,-9.59,-10.41,-10.45,0,*59
1521317132.98,58318,10.44,71798.3,-9.61,-10.45,-10.41,0,*5D
1521317134.21,58319,10.44,71798.8,-9.59,-10.45,-10.41,0,*57
1521317135.47,58320,10.44,71796.5,-9.61,-10.45,-10.41,0,*56
1521317136.71,58321,10.44,71804.5,-9.59,-10.45,-10.41,0,*5C
1521317137.97,58322,10.38,71798.8,-9.61,-10.41,-10.45,0,*54
1521317139.2,58323,10.44,71802.5,-9.59,-10.45,-10.41,0,*5E
1521317140.46,58324,10.44,71798.0,-9.59,-10.41,-10.41,0,*5D
1521317141.69,58325,10.44,71800.0,-9.59,-10.45,-10.41,0,*58
1521317142.95,58326,10.44,71804.0,-9.59,-10.41,-10.41,0,*5F
1521317144.24,58327,10.44,71800.0,-9.61,-10.41,-10.41,0,*55
1521317145.45,58328,10.44,71800.0,-9.59,-10.45,-10.45,0,*51
1521317146.68,58329,10.44,71796.8,-9.59,-10.41,-10.45,0,*54
1521317147.91,58330,10.44,71800.5,-9.59,-10.45,-10.41,0,*5C
1521317149.17,58331,10.38,71802.0,-9.61,-10.41,-10.45,0,*56
1521317150.4,58332,10.44,71804.8,-9.59,-10.41,-10.45,0,*5E
1521317151.66,58333,10.44,71806.5,-9.59,-10.41,-10.41,0,*5B
1521317152.87,58334,10.38,71792.8,-9.59,-10.45,-10.45,0,*5C
1521317154.13,58335,10.44,71802.3,-9.59,-10.41,-10.41,0,*5D
1521317155.36,58336,10.44,71798.0,-9.59,-10.45,-10.41,0,*5A
1521317156.62,58337,10.44,71794.3,-9.59,-10.41,-10.41,0,*5F
1521317157.88,58338,10.38,71798.0,-9.59,-10.41,-10.41,0,*50
1521317159.12,58339,10.44,71802.3,-9.59,-10.45,-10.41,0,*55
1521317160.35,58340,10.44,71794.3,-9.59,-10.45,-10.41,0,*5B
1521317161.61,58341,10.44,71798.5,-9.59,-10.41,-10.41,0,*5E
1521317162.87,58342,10.44,71798.5,-9.59,-10.41,-10.41,0,*5D
1521317164.1,58343,10.44,71800.8,-9.59,-10.45,-10.41,0,*58
1521317165.37,58344,10.44,71798.0,-9.59,-10.41,-10.41,0,*5B
1521317166.6,58345,10.44,71800.5,-9.59,-10.31,-10.41,0,*5D
1521317167.83,58346,10.44,71804.3,-9.59,-10.41,-10.45,0,*5D
1521317169.07,58347,10.38,71794.3,-9.59,-10.41,-10.31,0,*5F
1521317170.3,58348,10.44,71802.5,-9.59,-10.45,-10.41,0,*53
1521317171.56,58349,10.38,71802.5,-9.59,-10.41,-10.41,0,*56
1521317172.82,58350,10.44,71798.5,-9.59,-10.41,-10.41,0,*5E
1521317174.08,58351,10.44,71800.5,-9.59,-10.41,-10.41,0,*5F
1521317175.35,58352,10.44,71802.5,-9.59,-10.41,-10.41,0,*5C
1521317176.61,58353,10.44,71800.5,-9.59,-10.41,-10.41,0,*5D
1521317177.87,58354,10.44,71804.3,-9.59,-10.41,-10.41,0,*5A
1521317179.1,58355,10.44,71802.5,-9.59,-10.41,-10.45,0,*5F
1521317180.36,58356,10.44,71806.0,-9.59,-10.41,-10.41,0,*58
1521317181.62,58357,10.44,71802.3,-9.61,-10.45,-10.41,0,*56
1521317182.88,58358,10.38,71798.5,-9.59,-10.41,-10.41,0,*56
1521317184.12,58359,10.44,71804.0,-9.57,-10.35,-10.35,0,*59
1521317185.39,58360,10.44,71800.0,-9.57,-10.35,-10.41,0,*50
1521317186.63,58361,10.44,71804.3,-9.57,-10.35,-10.35,0,*52
1521317187.89,58362,10.38,71798.3,-9.57,-10.41,-10.35,0,*52
1521317189.13,58363,10.44,71802.8,-9.57,-10.35,-10.35,0,*50
1521317190.39,58364,10.44,71800.5,-9.59,-10.41,-10.41,0,*59
1521317191.62,58365,10.44,71806.0,-9.59,-10.45,-10.41,0,*5C
1521317192.85,58366,10.44,71800.8,-9.59,-10.45,-10.41,0,*5F
1521317194.09,58367,10.44,71802.0,-9.59,-10.45,-10.41,0,*5E
1521317195.32,58368,10.44,71808.8,-9.59,-10.45,-10.41,0,*51
1521317196.55,58369,10.44,71796.5,-9.59,-10.41,-10.45,0,*50
1521317197.78,58370,10.44,71800.8,-9.59,-10.41,-10.45,0,*58
1521317199.02,58371,10.44,71806.5,-9.59,-10.45,-10.41,0,*59
1521317200.25,58372,10.44,71806.0,-9.59,-10.41,-10.45,0,*5A
1521317201.51,58373,10.44,71810.3,-9.59,-10.41,-10.41,0,*5F
1521317202.77,58374,10.44,71806.0,-9.59,-10.41,-10.41,0,*58
1521317204.03,58375,10.44,71804.8,-9.59,-10.41,-10.41,0,*59
1521317205.29,58376,10.44,71808.0,-9.59,-10.41,-10.41,0,*5A
1521317206.53,58377,10.44,71806.0,-9.57,-10.35,-10.35,0,*55
1521317207.77,58378,10.44,71804.0,-9.57,-10.35,-10.35,0,*5A
1521317209.0,58379,10.38,71810.5,-9.59,-10.41,-10.45,0,*51
1521317210.29,58380,10.44,71806.0,-9.57,-10.41,-10.41,0,*5D
1521317211.53,58381,10.44,71806.5,-9.57,-10.35,-10.35,0,*5C
1521317212.77,58382,10.44,71806.8,-9.57,-10.35,-10.27,0,*5C
1521317214.01,58383,10.44,71804.0,-9.57,-10.35,-10.35,0,*5E
1521317215.24,58384,10.38,71802.8,-9.59,-10.45,-10.41,0,*53
1521317216.48,58385,10.44,71804.3,-9.57,-10.35,-10.35,0,*58
1521317217.72,58386,10.44,71804.3,-9.57,-10.35,-10.27,0,*58
1521317218.95,58387,10.44,71804.5,-9.57,-10.27,-10.35,0,*59
1521317220.21,58388,10.44,71808.3,-9.57,-10.35,-10.41,0,*56
1521317221.45,58389,10.44,71808.8,-9.57,-10.35,-10.35,0,*54
1521317222.71,58390,10.44,71806.3,-9.59,-10.41,-10.41,0,*52
1521317223.98,58391,10.44,71802.5,-9.59,-10.41,-10.41,0,*53
1521317225.21,58392,10.44,71808.0,-9.59,-10.41,-10.45,0,*54
1521317226.47,58393,10.44,71802.3,-9.59,-10.41,-10.41,0,*51
1521317227.73,58394,10.44,71810.8,-9.57,-10.41,-10.35,0,*5B
1521317228.97,58395,10.44,71804.8,-9.59,-10.41,-10.27,0,*57
1521317230.21,58396,10.44,71806.5,-9.55,-10.41,-10.35,0,*5B
1521317231.47,58397,10.44,71808.8,-9.57,-10.41,-10.35,0,*58
1521317232.73,58398,10.44,71810.8,-9.57,-10.41,-10.35,0,*57
1521317233.97,58399,10.38,71802.0,-9.57,-10.35,-10.27,0,*56
1521317235.2,58400,10.44,71810.3,-9.59,-10.41,-10.31,0,*5B
1521317236.43,58401,10.44,71810.0,-9.57,-10.35,-10.23,0,*54
1521317237.67,58402,10.44,71808.3,-9.57,-10.35,-10.27,0,*53
1521317238.91,58403,10.44,71810.0,-9.57,-10.27,-10.35,0,*52
1521317240.15,58404,10.44,71806.0,-9.57,-10.35,-10.35,0,*56
1521317241.39,58405,10.38,71806.0,-9.57,-10.35,-10.35,0,*57
1521317242.65,58406,10.44,71804.0,-9.57,-10.41,-10.35,0,*57
1521317243.89,58407,10.44,71806.8,-9.57,-10.35,-10.27,0,*56
1521317245.1,58408,10.44,71808.3,-9.55,-10.35,-10.27,0,*5B
1521317246.34,58409,10.44,71806.0,-9.57,-10.35,-10.27,0,*58
1521317247.6,58410,10.38,71802.8,-9.57,-10.35,-10.41,0,*50
1521317248.84,58411,10.44,71804.3,-9.57,-10.35,-10.35,0,*52
1521317250.1,58412,10.44,71806.8,-9.57,-10.41,-10.35,0,*52
1521317251.36,58413,10.44,71808.5,-9.57,-10.41,-10.35,0,*53
1521317252.57,58414,10.44,71804.5,-9.59,-10.45,-10.45,0,*59
1521317253.83,58415,10.38,71806.5,-9.57,-10.41,-10.35,0,*55
1521317255.09,58416,10.44,71800.8,-9.57,-10.41,-10.27,0,*55
1521317256.35,58417,10.38,71800.5,-9.57,-10.41,-10.35,0,*57
1521317257.59,58418,10.44,71808.0,-9.59,-10.45,-10.41,0,*51
1521317258.85,58419,10.38,71802.5,-9.59,-10.41,-10.41,0,*54
1521317260.11,58420,10.44,71808.0,-9.59,-10.41,-10.41,0,*5E
1521317261.37,58421,10.44,71808.8,-9.59,-10.41,-10.41,0,*5F
1521317262.63,58422,10.44,71804.5,-9.57,-10.41,-10.35,0,*51
1521317263.89,58423,10.44,71804.0,-9.57,-10.41,-10.35,0,*50
1521317265.13,58424,10.44,71808.5,-9.57,-10.35,-10.35,0,*54
1521317266.37,58425,10.44,71804.5,-9.57,-10.35,-10.35,0,*55
1521317267.64,58426,10.44,71806.8,-9.57,-10.35,-10.41,0,*55
1521317268.9,58427,10.44,71806.3,-9.57,-10.41,-10.35,0,*54
1521317270.1,58428,10.44,71808.0,-9.59,-10.45,-10.45,0,*56
1521317271.3,58429,10.44,71806.0,-9.59,-10.45,-10.45,0,*57
1521317272.54,58430,10.44,71800.8,-9.59,-10.41,-10.31,0,*58
1521317273.8,58431,10.44,71800.5,-9.59,-10.41,-10.41,0,*5E
1521317275.03,58432,10.44,71800.8,-9.59,-10.31,-10.41,0,*5A
1521317276.27,58433,10.44,71800.5,-9.57,-10.35,-10.27,0,*51
1521317277.54,58434,10.44,71804.3,-9.57,-10.35,-10.41,0,*56
1521317278.75,58435,10.44,71802.3,-9.55,-10.35,-10.27,0,*55
1521317279.99,58436,10.44,71802.0,-9.57,-10.35,-10.27,0,*54
1521317281.2,58437,10.44,71808.3,-9.55,-10.27,-10.27,0,*54
1521317282.43,58438,10.44,71802.8,-9.57,-10.27,-10.35,0,*5A
1521317283.67,58439,10.38,71796.5,-9.57,-10.35,-10.27,0,*5B
1521317284.91,58440,10.44,71806.0,-9.57,-10.35,-10.27,0,*55
1521317286.15,58441,10.44,71808.0,-9.55,-10.41,-10.35,0,*56
1521317287.43,58442,10.44,71802.3,-9.57,-10.41,-10.41,0,*54
1521317288.67,58443,10.44,71806.8,-9.57,-10.35,-10.35,0,*55
1521317289.94,58444,10.44,71802.8,-9.57,-10.35,-10.41,0,*51
1521317291.2,58445,10.44,71796.3,-9.57,-10.41,-10.35,0,*50
1521317292.41,58446,10.44,71802.3,-9.55,-10.35,-10.35,0,*52
1521317293.65,58447,10.44,71800.0,-9.57,-10.35,-10.35,0,*51
1521317294.91,58448,10.44,71800.0,-9.59,-10.41,-10.41,0,*50
1521317296.15,58449,10.38,71798.3,-9.57,-10.35,-10.35,0,*5F